Location: *
(45.7881°N, 13.8633°E)
Time: 13:03:15
(UTC+00:00)

Daily predictions for brighter satellites

Satellite Brightness Start Highest point End
(mag) Time Altitude Azimuth Time Altitude Azimuth Time Altitude Azimuth
NOSS 0 Rocket 4.0 17:21:30 10° NNW 17:27:44 73° ENE 17:33:56 10° SE
Meteor 2-15 4.5 17:21:48 10° S 17:27:56 78° E 17:34:06 10° NNE
FengYun 1-2 T 4.5 17:23:20 10° SSE 17:29:00 81° WSW 17:34:42 10° NNW
Meteor 2-15 Rocket 4.5 17:23:36 10° S 17:29:40 66° E 17:35:46 10° NNE
Cosmos 1707 3.2 17:26:28 10° N 17:30:12 40° ENE 17:33:53 10° SSE
Cosmos 1536 Rocket 4.4 17:31:47 10° NNW 17:36:01 54° W 17:40:14 10° S
NOAA 11 4.4 17:31:13 10° SE 17:36:33 55° ENE 17:41:54 10° N
Cosmos 2154 Rocket 4.0 17:30:48 10° N 17:37:01 68° E 17:43:11 10° SSE
Envisat 3.9 17:33:28 10° S 17:38:26 54° W 17:43:26 10° NNW
Cosmos 1371 Rocket 4.3 17:34:20 10° S 17:39:24 46° ESE 17:44:32 10° NNE
Meteor 1-4 Rocket 3.5 17:36:57 10° NNE 17:39:58 26° ENE 17:42:56 10° SE
YAOGAN 1 3.0 17:39:32 10° S 17:43:50 68° WSW 17:48:10 10° NNW
COSMOS 2428 3.7 17:40:22 10° NW 17:45:51 51° WSW 17:51:18 10° S
GP-B 3.0 17:42:19 10° N 17:46:47 77° E 17:51:13 10° S
IRS-1A Rocket 4.4 17:41:28 10° SSE 17:47:00 58° ENE 17:52:29 10° N
YAOGAN 6 3.7 17:44:36 10° S 17:48:11 49° W 17:51:48 10° NNW
RESURS DK-1 4.4 17:46:15 10° NNE 17:48:22 14° NE 17:50:27 10° ENE
Cosmos 1892 Rocket 4.1 17:44:43 10° N 17:48:52 37° ENE 17:52:57 10° SE
Resurs 01 Rocket 3.7 17:49:04 10° ENE 17:50:22 11° ENE 17:51:41 10° NE
FREGAT/IRIS 3.4 17:52:03 11° SE 17:54:23 29° ENE 17:56:53 10° N
Cosmos 2227 Rocket 2.5 17:49:15 10° S 17:54:36 45° ESE 17:59:59 10° NE
Cosmos 2084 Rocket 3.5 17:55:32 10° SSW 17:59:55 64° SE 18:04:22 10° NE
BREEZE-M DEB (TANK) 3.9 17:56:03 10° WNW 18:00:00 51° N 18:07:35 12° E
CZ-2C R/B 4.3 17:57:18 10° NNE 18:01:18 32° E 18:05:16 10° SSE
Cosmos 2219 3.2 17:56:01 10° SSW 18:01:47 86° ESE 18:07:33 10° NNE
CZ-2D R/B 3.4 17:58:17 10° S 18:02:05 77° WSW 18:05:55 10° NNW
ADEOS Rocket 4.2 17:57:31 10° NNE 18:04:01 31° E 18:10:40 10° SSE
Cosmos 2297 Rocket 2.2 17:59:02 10° S 18:04:33 57° ESE 18:10:06 10° NNE
Cosmos 1190 Rocket 4.0 18:00:11 10° NNW 18:05:30 82° ENE 18:10:45 10° SSE
Cosmos 614 Rocket 4.0 18:00:25 10° NNW 18:05:40 87° ENE 18:10:50 10° SSE
NOSS 3-4 (A) 4.4 18:00:11 10° NW 18:07:08 61° WSW 18:14:42 10° SSE
NOSS 3-4 (C) 4.4 18:00:17 10° NW 18:07:14 62° WSW 18:14:48 10° SSE
FAST 4.3 18:04:48 10° S 18:07:38 62° E 18:10:16 10° NNE
SJ-6B 3.6 18:05:30 15° SE 18:08:28 34° ENE 18:12:09 10° N
Nadezhda 1 Rocket 4.4 18:04:32 10° SSW 18:10:33 67° W 18:16:39 10° N
Cosmos 1766 4.2 18:07:35 10° SSE 18:10:53 26° E 18:14:11 10° NNE
MONITOR-E 3.8 18:08:09 10° SSE 18:10:56 81° ENE 18:13:45 10° N
H-2A R/B 2.7 18:09:16 17° ESE 18:12:23 32° ENE 18:16:53 10° N
CZ-4 R/B 4.0 18:10:33 10° SSW 18:13:41 23° W 18:16:54 10° NW
Cosmos 1295 Rocket 4.5 18:08:32 10° N 18:14:44 86° W 18:20:50 10° S
Okean 1-7 Rocket 3.5 18:10:28 10° N 18:14:56 71° E 18:19:25 10° SSE
Orbus 7S? 4.5 18:10:48 10° SW 18:15:05 78° SE 18:25:42 10° NE
SL-8 R/B 3.9 18:13:42 10° WNW 18:18:28 64° N 18:21:34 21° E
In-Cosmos 22 4.1 18:14:06 10° N 18:19:31 83° E 18:25:03 10° SSE
Ariane Rocket 3.4 18:15:40 10° S 18:20:41 65° WSW 18:25:46 10° NNW
HJ-1C 3.7 18:18:30 10° S 18:21:51 66° WSW 18:25:14 10° NNW
Cosmos 405 Rocket 2.5 18:19:50 10° S 18:23:31 84° ESE 18:27:17 10° NNE
USA 234 4.3 18:20:12 10° NE 18:26:18 43° NNW 18:32:25 10° W
Cosmos 1455 Rocket 3.0 18:22:32 10° S 18:26:54 62° E 18:31:20 10° NNE
Cosmos 1544 Rocket 3.7 18:22:37 10° SSE 18:26:56 50° E 18:31:16 10° NNE
BREEZE-M DEB (TANK) 4.2 18:12:37 10° WNW 18:27:36 82° SSW 18:29:54 27° ESE
PSLV R/B 3.9 18:25:48 10° WSW 18:28:09 28° S 18:28:09 28° S
ASTEX 1 3.3 18:24:17 10° N 18:29:11 90° ENE 18:34:05 10° S
Lacrosse 5 rocket 1.2 18:25:45 10° WSW 18:29:23 72° NW 18:32:25 15° NE
Cosmos 389 Rocket 3.4 18:26:18 10° NNW 18:29:37 48° W 18:32:57 10° S
Cosmos 1674 2.9 18:26:45 10° N 18:30:19 43° ENE 18:31:15 35° ESE
MOS 1 4.3 18:26:02 10° SSE 18:31:44 83° WSW 18:37:28 10° NNW
Cosmos 407 Rocket 4.2 18:27:31 10° NNW 18:32:30 53° WSW 18:37:27 10° S
USA 186 1.8 18:33:12 26° SSE 18:35:02 80° ENE 18:38:27 10° N
Cosmos 2237 Rocket 3.0 18:30:44 10° NW 18:36:14 52° WSW 18:41:44 10° S
Cosmos 2056 Rocket 3.9 18:32:24 10° SSW 18:37:48 70° WNW 18:43:12 10° NNE
Cosmos 1939 Rocket 4.5 18:34:39 10° SSW 18:38:10 33° W 18:41:43 10° NNW
Cosmos 1437 Rocket 2.6 18:34:40 10° N 18:38:27 64° ENE 18:39:44 37° SE
ISS -3.1 18:35:56 10° W 18:39:11 52° NNW 18:40:32 30° NE
Cosmos 1420 Rocket 4.0 18:34:26 10° S 18:39:37 58° ESE 18:44:52 10° NNE
ERBS 2.2 18:39:06 10° NW 18:42:31 84° SW 18:43:05 59° SE
DELTA 2 R/B (1) 4.1 18:37:30 10° WSW 18:42:49 45° S 18:44:50 32° SE
Cosmos 1140 Rocket 3.9 18:40:40 10° NNW 18:45:46 61° WSW 18:50:35 11° S
SAR-Lupe-2 4.1 18:42:23 10° N 18:45:55 60° WNW 18:49:25 10° SSW
Cosmos 1626 Rocket 3.6 18:41:59 10° N 18:46:13 51° ENE 18:47:01 44° ESE
Meteor 1-24 Rocket 3.7 18:44:38 10° N 18:50:30 72° ENE 18:54:22 23° SSE
Cosmos 1741 Rocket 4.2 18:49:44 10° NNW 18:54:58 52° ENE 18:56:13 42° ESE
Cosmos 1954 Rocket 4.3 18:51:15 10° NNW 18:56:26 66° WSW 18:59:57 20° S
Cosmos 1805 3.1 18:54:15 20° S 18:56:56 88° E 19:00:50 10° N
Spot 2 Rocket 4.4 18:57:28 30° ENE 18:57:28 30° ENE 19:01:44 10° N
Cosmos 1603 4.3 19:00:26 10° NNW 19:05:42 37° NE 19:06:20 36° ENE
Cosmos 2181 Rocket 4.5 19:00:23 10° SSW 19:06:35 63° WNW 19:12:56 10° N
SL-08 R/B 4.5 19:01:23 10° N 19:07:54 81° E 19:11:30 28° SSE
GEOS 3 Rocket 3.9 19:05:53 32° SSE 19:08:08 60° SW 19:13:12 10° NW
Cosmos 1602 Rocket 3.4 19:04:22 10° N 19:08:42 72° E 19:08:44 72° E
KORONAS-FOTON 3.9 19:05:01 10° NNW 19:08:47 71° W 19:09:08 65° SW
Resurs 1-3 3.4 19:08:40 69° ESE 19:09:03 76° ENE 19:13:27 10° N
Cosmos 1626 4.0 19:06:06 10° N 19:07:34 20° NNE 19:07:34 20° NNE
SL-16 R/B 2.4 19:04:27 10° NNW 19:10:08 71° WSW 19:12:43 33° S
Lacrosse 5 3.0 19:05:41 10° SSW 19:08:27 29° S 19:08:27 29° S
Cosmos 482 Debris 4.3 19:06:27 10° WSW 19:10:35 64° WSW 19:10:35 64° WSW
Nadezhda 3 Rocket 4.1 19:11:03 47° ESE 19:11:43 49° E 19:17:40 10° NNE
Cosmos 2366 rocket 4.4 19:12:15 10° NNW 19:18:32 64° W 19:24:13 13° S
SPOT 3 Rocket 4.4 19:19:19 18° SSW 19:22:57 47° W 19:27:57 10° NNW
ARGOS 3.4 19:20:36 33° S 19:23:01 68° WSW 19:28:25 10° NNW
Cosmos 2082 4.2 19:18:57 10° SW 19:24:36 59° WNW 19:30:17 10° NNE
Cosmos 1821 Rocket 3.9 19:19:44 10° N 19:25:49 61° ENE 19:26:17 59° E
Resurs 01 Rocket 1.6 19:26:30 75° N 19:26:30 75° N 19:30:36 10° NNW
RESURS DK-1 2.7 19:22:51 10° NNW 19:26:21 62° NW 19:26:21 62° NW
CZ-2C R/B 3.1 19:30:52 65° S 19:31:43 86° WSW 19:37:22 10° NNW
Cosmos 1452 Rocket 3.9 19:26:40 10° SSW 19:31:53 63° WNW 19:37:06 10° NNE
Cosmos 2239 Rocket 4.4 19:26:14 10° N 19:32:27 62° ENE 19:32:40 61° E
MetOp-A 4.1 19:34:27 65° S 19:35:13 80° WSW 19:40:37 10° NNW
Cosmos 2227 Rocket 3.9 19:33:47 10° WSW 19:38:49 32° NW 19:43:54 10° N
Cosmos 2297 Rocket 4.2 19:44:13 10° WSW 19:48:59 27° NW 19:53:44 10° N
ADEOS Rocket 3.9 19:42:28 10° N 19:49:51 65° WNW 19:57:30 10° SSW
Meteor 2-12 Rocket 4.3 19:44:30 10° N 19:50:39 90° E 19:50:51 85° SSE
H-2A R/B 3.4 19:49:53 26° SW 19:51:46 34° W 19:56:22 10° NNW
CZ-4C R/B 4.2 19:49:37 10° NNW 19:55:09 26° NNE 19:56:54 24° NE
Lacrosse 5 rocket 3.8 20:06:15 10° WNW 20:08:06 18° NW 20:08:06 18° NW
Cosmos 1943 3.7 20:03:23 10° NNW 20:07:51 55° N 20:07:51 55° N
BREEZE M DEB (TANK) 4.5 20:11:17 10° WNW 20:12:29 27° WNW 20:12:29 27° WNW
ERS-1 Rocket 4.5 20:20:57 30° N 20:20:57 30° N 20:23:30 10° N
Cosmos 1934 Rocket 4.2 20:15:07 10° N 20:20:15 63° NNW 20:20:15 63° NNW
Terra 4.1 20:25:42 18° N 20:25:42 18° N 20:27:02 10° N
CZ-2C R/B 4.0 20:40:15 10° N 20:43:38 36° NNW 20:43:38 36° NNW
CZ-4C R/B 3.9 21:37:50 10° NW 21:42:04 40° NNW 21:42:04 40° NNW
